• In Hungary
  • List of Countries
  • For 7 days
  • Water Temperature
  • Satellite Maps
  • Weather Map
  • News
  • Weather Widgets
  • user-avatar
    Login

    Hourly Weather Kuyar

    Today, 23 September, Sunday

    Time Temperature Precipitation Wind Pressure Humidity
    00:00 +16°C° 0 mm 2 mps 755 mmHg 92%
    01:00 +15°C° 0 mm 2 mps 755 mmHg 92%
    02:00 +15°C° 0 mm 2 mps 755 mmHg 93%
    03:00 +14°C° 0 mm 2 mps 755 mmHg 95%
    04:00 +14°C° 0 mm 2 mps 754 mmHg 95%
    05:00 +13°C° 0 mm 3 mps 754 mmHg 94%
    06:00 +13°C° 0 mm 3 mps 754 mmHg 94%
    07:00 +16°C° 0 mm 3 mps 754 mmHg 87%
    08:00 +18°C° 0 mm 4 mps 754 mmHg 79%
    09:00 +20°C° 0 mm 4 mps 753 mmHg 70%
    10:00 +21°C° 0 mm 5 mps 753 mmHg 65%
    11:00 +22°C° 0 mm 5 mps 753 mmHg 60%
    12:00 +23°C° 0 mm 6 mps 752 mmHg 54%
    13:00 +23°C° 0 mm 6 mps 752 mmHg 54%
    14:00 +23°C° 0 mm 6 mps 752 mmHg 53%
    15:00 +23°C° 0 mm 6 mps 751 mmHg 53%
    16:00 +22°C° 0 mm 5 mps 751 mmHg 59%
    17:00 +21°C° 0 mm 5 mps 751 mmHg 65%
    18:00 +19°C° 0 mm 4 mps 750 mmHg 70%
    19:00 +19°C° 0 mm 4 mps 750 mmHg 73%
    20:00 +19°C° 0 mm 4 mps 750 mmHg 75%
    21:00 +18°C° 0 mm 4 mps 749 mmHg 77%
    22:00 +18°C° 0 mm 4 mps 749 mmHg 77%
    23:00 +17°C° 0 mm 4 mps 749 mmHg 77%

    Tomorrow, 24 September, Monday

    Time Temperature Precipitation Wind Pressure Humidity
    00:00 +17°C° 0 mm 4 mps 748 mmHg 78%
    01:00 +17°C° 0 mm 4 mps 748 mmHg 76%
    02:00 +15°C° 0 mm 4 mps 748 mmHg 74%
    03:00 +15°C° 0 mm 4 mps 748 mmHg 73%
    04:00 +14°C° 0 mm 4 mps 748 mmHg 71%
    05:00 +14°C° 0 mm 4 mps 748 mmHg 69%
    06:00 +13°C° 0 mm 4 mps 748 mmHg 67%
    07:00 +12°C° 0.9 mm 4 mps 748 mmHg 73%
    08:00 +11°C° 0.9 mm 4 mps 748 mmHg 79%
    09:00 +10°C° 0.9 mm 4 mps 749 mmHg 84%
    10:00 +10°C° 0.7 mm 4 mps 749 mmHg 84%
    11:00 +10°C° 0.7 mm 3 mps 750 mmHg 83%
    12:00 +10°C° 0.7 mm 3 mps 750 mmHg 83%
    13:00 +12°C° 0.1 mm 2 mps 751 mmHg 79%
    14:00 +13°C° 0.1 mm 2 mps 751 mmHg 75%
    15:00 +14°C° 0.1 mm 2 mps 752 mmHg 71%
    16:00 +13°C° 0 mm 2 mps 752 mmHg 76%
    17:00 +12°C° 0 mm 1 mps 752 mmHg 80%
    18:00 +11°C° 0 mm 1 mps 752 mmHg 84%
    19:00 +11°C° 0 mm 1 mps 752 mmHg 86%
    20:00 +9°C° 0 mm 2 mps 752 mmHg 88%
    21:00 +9°C° 0 mm 2 mps 752 mmHg 90%
    22:00 +9°C° 0 mm 2 mps 752 mmHg 91%
    23:00 +8°C° 0 mm 2 mps 752 mmHg 92%

    Day after tomorrow, 25 September, Tuesday

    Time Temperature Precipitation Wind Pressure Humidity
    00:00 +8°C° 0 mm 2 mps 751 mmHg 93%
    01:00 +8°C° 0 mm 3 mps 751 mmHg 91%
    02:00 +9°C° 0 mm 3 mps 751 mmHg 89%
    03:00 +9°C° 0 mm 3 mps 750 mmHg 86%
    04:00 +8°C° 0.1 mm 4 mps 750 mmHg 85%
    05:00 +8°C° 0.1 mm 4 mps 749 mmHg 84%
    06:00 +8°C° 0.1 mm 5 mps 748 mmHg 82%
    07:00 +8°C° 0.6 mm 5 mps 748 mmHg 83%
    08:00 +8°C° 0.6 mm 5 mps 747 mmHg 84%
    09:00 +8°C° 0.6 mm 6 mps 747 mmHg 84%
    10:00 +9°C° 1.1 mm 6 mps 747 mmHg 85%
    11:00 +9°C° 1.1 mm 6 mps 746 mmHg 86%
    12:00 +9°C° 1.1 mm 6 mps 746 mmHg 87%
    13:00 +9°C° 1.2 mm 6 mps 745 mmHg 87%
    14:00 +10°C° 1.2 mm 6 mps 745 mmHg 88%
    15:00 +10°C° 1.2 mm 6 mps 745 mmHg 89%
    16:00 +10°C° 0.3 mm 6 mps 745 mmHg 89%
    17:00 +10°C° 0.3 mm 5 mps 745 mmHg 90%
    18:00 +10°C° 0.3 mm 5 mps 744 mmHg 90%
    19:00 +10°C° 0.1 mm 5 mps 745 mmHg 88%
    20:00 +10°C° 0.1 mm 4 mps 745 mmHg 86%
    21:00 +8°C° 0.1 mm 4 mps 745 mmHg 84%
    22:00 +7°C° 0 mm 4 mps 745 mmHg 85%
    23:00 +7°C° 0 mm 5 mps 745 mmHg 86%

    26 September, Wednesday

    Time Temperature Precipitation Wind Pressure Humidity
    00:00 +6°C° 0 mm 5 mps 746 mmHg 87%
    01:00 +6°C° 0 mm 5 mps 746 mmHg 87%
    02:00 +6°C° 0 mm 5 mps 746 mmHg 87%
    03:00 +6°C° 0 mm 5 mps 747 mmHg 87%
    04:00 +6°C° 0 mm 5 mps 747 mmHg 85%
    05:00 +6°C° 0 mm 5 mps 747 mmHg 84%
    06:00 +5°C° 0 mm 6 mps 748 mmHg 82%
    07:00 +7°C° 0 mm 6 mps 748 mmHg 81%
    08:00 +7°C° 0 mm 6 mps 749 mmHg 79%
    09:00 +7°C° 0 mm 6 mps 750 mmHg 77%
    10:00 +8°C° 0 mm 6 mps 750 mmHg 77%
    11:00 +8°C° 0 mm 6 mps 751 mmHg 76%
    12:00 +8°C° 0 mm 6 mps 752 mmHg 76%
    13:00 +8°C° 0.1 mm 5 mps 753 mmHg 77%
    14:00 +8°C° 0.1 mm 5 mps 753 mmHg 77%
    15:00 +8°C° 0.1 mm 4 mps 754 mmHg 78%
    16:00 +8°C° 0 mm 4 mps 755 mmHg 80%
    17:00 +8°C° 0 mm 3 mps 755 mmHg 81%
    18:00 +8°C° 0 mm 3 mps 756 mmHg 83%
    19:00 +7°C° 0 mm 3 mps 756 mmHg 84%
    20:00 +7°C° 0 mm 2 mps 756 mmHg 86%
    21:00 +6°C° 0 mm 2 mps 756 mmHg 88%
    22:00 +6°C° 0 mm 2 mps 756 mmHg 87%
    23:00 +6°C° 0 mm 2 mps 756 mmHg 87%

    27 September, Thursday

    Time Temperature Precipitation Wind Pressure Humidity
    00:00 +5°C° 0 mm 3 mps 756 mmHg 87%
    01:00 +5°C° 0 mm 3 mps 756 mmHg 87%
    02:00 +4°C° 0 mm 3 mps 756 mmHg 88%
    03:00 +4°C° 0 mm 3 mps 756 mmHg 89%
    04:00 +3°C° 0 mm 3 mps 755 mmHg 90%
    05:00 +3°C° 0 mm 3 mps 755 mmHg 91%
    06:00 +1°C° 0 mm 4 mps 754 mmHg 91%
    07:00 +4°C° 0 mm 4 mps 754 mmHg 81%
    08:00 +5°C° 0 mm 5 mps 753 mmHg 72%
    09:00 +5°C° 0 mm 6 mps 753 mmHg 62%
    10:00 +7°C° 0 mm 6 mps 752 mmHg 58%
    11:00 +8°C° 0 mm 7 mps 752 mmHg 54%
    12:00 +9°C° 0 mm 7 mps 751 mmHg 50%
    13:00 +9°C° 0 mm 7 mps 751 mmHg 51%
    14:00 +9°C° 0 mm 7 mps 750 mmHg 53%
    15:00 +9°C° 0 mm 7 mps 750 mmHg 54%
    16:00 +8°C° 0.3 mm 7 mps 749 mmHg 61%
    17:00 +6°C° 0.3 mm 7 mps 749 mmHg 68%
    18:00 +5°C° 0.3 mm 6 mps 748 mmHg 75%
    19:00 +4°C° 0.6 mm 6 mps 748 mmHg 78%
    20:00 +4°C° 0.6 mm 6 mps 747 mmHg 81%
    21:00 +4°C° 0.6 mm 6 mps 747 mmHg 85%
    22:00 +4°C° 0.5 mm 6 mps 747 mmHg 87%
    23:00 +5°C° 0.5 mm 5 mps 746 mmHg 88%

    28 September, Friday

    Time Temperature Precipitation Wind Pressure Humidity
    00:00 +5°C° 0.5 mm 5 mps 746 mmHg 90%
    01:00 +5°C° 0 mm 5 mps 746 mmHg 90%
    02:00 +6°C° 0 mm 4 mps 746 mmHg 90%
    03:00 +6°C° 0 mm 4 mps 746 mmHg 90%
    04:00 +5°C° 0 mm 4 mps 747 mmHg 91%
    05:00 +5°C° 0 mm 4 mps 747 mmHg 92%
    06:00 +3°C° 0 mm 5 mps 747 mmHg 93%
    07:00 +5°C° 0 mm 5 mps 748 mmHg 89%
    08:00 +6°C° 0 mm 5 mps 748 mmHg 85%
    09:00 +7°C° 0 mm 5 mps 748 mmHg 81%
    10:00 +8°C° 0 mm 5 mps 749 mmHg 75%
    11:00 +9°C° 0 mm 5 mps 749 mmHg 69%
    12:00 +10°C° 0 mm 5 mps 749 mmHg 63%
    13:00 +9°C° 0.2 mm 5 mps 749 mmHg 65%
    14:00 +10°C° 0.2 mm 4 mps 748 mmHg 67%
    15:00 +10°C° 0.2 mm 4 mps 748 mmHg 70%
    16:00 +8°C° 1.9 mm 4 mps 747 mmHg 78%
    17:00 +8°C° 1.9 mm 4 mps 746 mmHg 85%
    18:00 +7°C° 1.9 mm 4 mps 745 mmHg 93%
    19:00 +8°C° 3.1 mm 5 mps 744 mmHg 92%
    20:00 +9°C° 3.1 mm 6 mps 743 mmHg 92%
    21:00 +10°C° 3.1 mm 7 mps 742 mmHg 91%
    22:00 +9°C° 1.7 mm 6 mps 742 mmHg 91%
    23:00 +9°C° 1.7 mm 6 mps 742 mmHg 92%
    Show more